Date String (YYYY-MM-DD hh:mm:ss) UTC,Instrument flags,Ambient pressure (hPa),Sample flow (lpm),Bypass flow (lpm),Sample temperature (°C),Ambient temperature (°C),ASC tube jacket temperature (°C),LED temperature (°C),Box temperature (°C),Sample RH (%),Span deviation,Mass concentration (μg/m³),Mass concentration (μg/m³),Mass concentration (μg/m³)
DateTimeUTC,F1_M11,P_M11,Q1_M11,Q2_M11,T1_M11,T2_M11,T3_M11,T4_M11,T5_M11,U1_M11,ZSPAN_M11,X0_M11,X2_M11,X1_M11
2023-04-26 10:00:00,,0831.3,4.99,0.00,22.6,21.2,00.0,30.9,24.2,27.8,0000.0,0000.58,0000.46,0000.42
2023-04-26 10:01:00,,0831.3,5.00,0.00,22.6,21.2,00.0,30.9,24.2,27.8,0000.0,0000.62,0000.48,0000.43
2023-04-26 10:02:00,,0831.3,5.00,0.00,22.6,21.2,00.0,30.9,24.2,27.9,0000.0,0000.64,0000.49,0000.43
2023-04-26 10:03:00,,0831.3,5.00,0.00,22.6,21.2,00.0,30.9,24.2,27.8,0000.0,0000.64,0000.49,0000.43
2023-04-26 10:04:00,,0831.3,5.00,0.00,22.6,21.2,00.0,30.9,24.2,27.8,0000.0,0000.65,0000.49,0000.44
2023-04-26 10:05:00,,0831.3,4.99,0.00,22.6,21.1,00.0,30.9,24.2,27.8,0000.0,0000.67,0000.51,0000.45
2023-04-26 10:06:00,,0831.4,5.00,0.00,22.6,21.1,00.0,31.0,24.2,27.8,0000.0,0000.67,0000.51,0000.45
2023-04-26 10:07:00,,0831.4,5.00,0.00,22.6,21.1,00.0,31.0,24.2,27.8,0000.0,0000.68,0000.52,0000.46
2023-04-26 10:08:00,,0831.4,5.00,0.00,22.6,21.1,00.0,30.9,24.2,27.8,0000.0,0000.69,0000.53,0000.47
2023-04-26 10:09:00,,0831.4,5.00,0.00,22.6,21.1,00.0,30.9,24.2,27.7,0000.0,0000.71,0000.54,0000.48
2023-04-26 10:10:00,,0831.4,5.00,0.00,22.6,21.1,00.0,30.9,24.2,27.7,0000.0,0000.71,0000.55,0000.49
2023-04-26 10:11:00,,0831.3,5.00,0.00,22.6,21.1,00.0,30.9,24.2,27.7,0000.0,0000.70,0000.55,0000.49
2023-04-26 10:12:00,,0831.4,5.01,0.00,22.6,21.1,00.0,30.9,24.2,27.6,0000.0,0000.74,0000.56,0000.49
2023-04-26 10:13:00,,0831.4,4.99,0.00,22.6,21.1,00.0,30.9,24.2,27.6,0000.0,0000.75,0000.56,0000.49
2023-04-26 10:14:00,,0831.4,5.00,0.00,22.6,21.1,00.0,30.9,24.2,27.6,0000.0,0000.78,0000.58,0000.51
2023-04-26 10:15:00,,0831.4,5.00,0.00,22.6,21.1,00.0,30.9,24.2,27.5,0000.0,0000.82,0000.60,0000.51
2023-04-26 10:16:00,,0831.5,4.99,0.00,22.6,21.1,00.0,30.9,24.2,27.5,0000.0,0000.88,0000.62,0000.51
2023-04-26 10:17:00,,0831.4,5.00,0.00,22.6,21.1,00.0,30.9,24.2,27.4,0000.0,0001.01,0000.66,0000.53
2023-04-26 10:18:00,,0831.5,5.00,0.00,22.6,21.1,00.0,30.9,24.2,27.5,0000.0,0001.12,0000.71,0000.54
2023-04-26 10:19:00,,0831.5,5.00,0.00,22.6,21.1,00.0,30.9,24.2,27.5,0000.0,0001.20,0000.74,0000.56
2023-04-26 10:20:00,,0831.4,5.01,0.00,22.6,21.1,00.0,30.9,24.2,27.4,0000.0,0001.24,0000.77,0000.59
2023-04-26 10:21:00,,0831.4,5.00,0.00,22.6,21.1,00.0,30.9,24.2,27.5,0000.0,0001.29,0000.80,0000.61
2023-04-26 10:22:00,,0831.5,5.00,0.00,22.6,21.1,00.0,30.9,24.3,27.4,0000.0,0001.34,0000.83,0000.63
2023-04-26 10:23:00,,0831.5,5.00,0.00,22.7,21.8,00.0,30.8,24.6,27.3,0000.0,0001.31,0000.82,0000.64
2023-04-26 10:24:00,,0831.5,4.99,0.00,22.8,22.7,00.0,30.8,24.9,27.1,0000.0,0001.31,0000.83,0000.65
2023-04-26 10:25:00,,0831.6,5.01,0.00,22.9,22.9,00.0,30.9,24.8,27.0,0000.0,0001.33,0000.84,0000.66
2023-04-26 10:26:00,,0831.5,5.01,0.00,22.9,22.7,00.0,31.0,24.8,26.9,0000.0,0001.34,0000.86,0000.68
2023-04-26 10:27:00,,0831.6,4.99,0.00,22.9,22.5,00.0,31.1,24.7,26.9,0000.0,0001.35,0000.88,0000.69
2023-04-26 10:28:00,,0831.6,5.00,0.00,22.9,22.3,00.0,31.1,24.6,27.0,0000.0,0001.24,0000.86,0000.70
2023-04-26 10:29:00,,0831.6,5.00,0.00,22.9,22.2,00.0,31.1,24.6,27.0,0000.0,0001.12,0000.82,0000.69
2023-04-26 10:30:00,,0831.5,5.00,0.00,22.9,22.0,00.0,31.1,24.6,27.0,0000.0,0001.03,0000.79,0000.68
2023-04-26 10:31:00,,0831.5,5.00,0.00,22.9,21.9,00.0,31.2,24.6,27.0,0000.0,0001.03,0000.78,0000.67
2023-04-26 10:32:00,,0831.5,5.00,0.00,22.9,21.7,00.0,31.2,24.5,27.0,0000.0,0000.96,0000.74,0000.64
2023-04-26 10:33:00,,0831.5,5.00,0.00,22.9,21.7,00.0,31.2,24.5,26.9,0000.0,0000.89,0000.70,0000.62
2023-04-26 10:34:00,,0831.5,5.00,0.00,22.9,21.6,00.0,31.2,24.5,26.9,0000.0,0000.85,0000.68,0000.61
2023-04-26 10:35:00,,0831.5,5.00,0.00,22.9,21.5,00.0,31.2,24.5,26.9,0000.0,0000.80,0000.65,0000.59
2023-04-26 10:36:00,,0831.5,4.99,0.00,22.9,21.5,00.0,31.2,24.5,26.9,0000.0,0000.77,0000.63,0000.58
2023-04-26 10:37:00,,0831.5,5.01,0.00,22.8,21.4,00.0,31.2,24.5,27.0,0000.0,0000.70,0000.60,0000.56
2023-04-26 10:38:00,,0831.5,5.00,0.00,22.8,21.4,00.0,31.2,24.5,27.1,0000.0,0000.64,0000.56,0000.54
2023-04-26 10:39:00,,0831.5,5.01,0.00,22.8,21.4,00.0,31.2,24.4,27.1,0000.0,0000.61,0000.53,0000.52
2023-04-26 10:40:00,,0831.5,5.01,0.00,22.8,21.4,00.0,31.2,24.4,27.1,0000.0,0000.61,0000.53,0000.50
2023-04-26 10:41:00,,0831.5,5.00,0.00,22.8,21.4,00.0,31.2,24.4,27.1,0000.0,0000.65,0000.53,0000.49
2023-04-26 10:42:00,,0831.5,5.00,0.00,22.8,21.4,00.0,31.2,24.5,27.1,0000.0,0000.62,0000.51,0000.47
2023-04-26 10:43:00,,0831.5,5.00,0.00,22.8,21.4,00.0,31.2,24.4,27.2,0000.0,0000.60,0000.49,0000.46
2023-04-26 10:44:00,,0831.5,5.00,0.00,22.8,21.3,00.0,31.2,24.4,27.1,0000.0,0000.61,0000.49,0000.46
2023-04-26 10:45:00,,0831.5,5.00,0.00,22.8,21.3,00.0,31.2,24.4,27.1,0000.0,0000.64,0000.50,0000.46
2023-04-26 10:46:00,,0831.5,4.99,0.00,22.8,21.3,00.0,31.2,24.4,27.1,0000.0,0000.69,0000.52,0000.47
2023-04-26 10:47:00,,0831.5,5.00,0.00,22.8,21.3,00.0,31.2,24.4,27.1,0000.0,0000.71,0000.53,0000.47
2023-04-26 10:48:00,,0831.5,5.00,0.00,22.8,21.3,00.0,31.2,24.4,27.1,0000.0,0000.69,0000.52,0000.46
2023-04-26 10:49:00,,0831.5,5.00,0.00,22.8,21.3,00.0,31.2,24.4,27.0,0000.0,0000.74,0000.54,0000.48
2023-04-26 10:50:00,,0831.5,5.00,0.00,22.8,21.3,00.0,31.2,24.4,27.0,0000.0,0000.80,0000.56,0000.48
2023-04-26 10:51:00,,0831.5,5.00,0.00,22.8,21.3,00.0,31.2,24.4,27.0,0000.0,0000.84,0000.57,0000.47
2023-04-26 10:52:00,,0831.5,5.00,0.00,22.8,21.3,00.0,31.2,24.4,26.9,0000.0,0000.77,0000.53,0000.45
2023-04-26 10:53:00,,0831.5,4.99,0.00,22.8,21.3,00.0,31.2,24.4,26.9,0000.0,0000.74,0000.50,0000.42
2023-04-26 10:54:00,,0831.5,5.00,0.00,22.8,21.3,00.0,31.2,24.4,26.9,0000.0,0000.74,0000.49,0000.40
2023-04-26 10:55:00,,0831.5,5.01,0.00,22.8,21.3,00.0,31.2,24.4,26.9,0000.0,0000.79,0000.48,0000.37
2023-04-26 10:56:00,,0831.5,5.01,0.00,22.8,21.3,00.0,31.2,24.4,26.8,0000.0,0000.96,0000.50,0000.36
2023-04-26 10:57:00,,0831.5,4.99,0.00,22.8,21.3,00.0,31.2,24.4,26.8,0000.0,0000.97,0000.49,0000.34
2023-04-26 10:58:00,,0831.6,5.00,0.00,22.8,21.3,00.0,31.2,24.4,26.8,0000.0,0000.95,0000.47,0000.32
2023-04-26 10:59:00,,0831.6,5.00,0.00,22.8,21.3,00.0,31.2,24.4,26.9,0000.0,0000.94,0000.45,0000.30
